Location: Faicchio
(41.2833°N, 14.4833°E)
Time: 07:23:36
(UTC+00:00)

Cosmos 1607 - Pass Details

Date: 15 June 2025
Orbit: 931 x 971 km, 65.0° (Epoch: 17 July)

Event Time Altitude Azimuth Distance (km) Brightness Sun altitude
Exits shadow 02:26:13 11° 212° (SSW) 2,567 5.6 -10.0°
Maximum altitude 02:32:12 88° 301° (WNW) 951 4.0 -9.2°
Drops below altitude 10° 02:38:25 10° 32° (NNE) 2,657 7.7 -8.3°
Sets 02:40:57 0° 33° (NNE) 3,600 8.7 -8.0°
